NOAA 16 DEB, 42341

Orbit data source: Space-Track

NOAA 16 DEB, 42341 is space debris in SSO originally from a launch on Thu, 21 Sep 2000 UTC launched from the Air Force Western Test Range (AFWTR). Debris objects in space refer to the collection of defunct objects orbiting the Earth. Examples of debris include non-operational satellites, rocket bodies, and fragments generated from explosions, collisions, or faulty payload assembly.

Loading next visibility...
Identifier
42341, 2000-055QH
Orbit
SSO
Country
Flag of USUS
Related business
Manufacturer
Unknown
Mission
Spacecraft
Bus & Motor
Unknown
Mass
Unknown
Launch date (UTC)
Icon of a cake. It is the launch day of the satellite!2000-09-21 (26 years ago)
Launch vehicle
Unknown
Launch site
Air Force Western Test Range (AFWTR)
Object type
Payload
Rocket body
Debris
Shape & HBR
Unknown shape, 0.1 m
Radar Cross Section
Small (<0.1 m²)

Expand to show TLE details & history
Last TLE update: 5 hours ago

TLE from 5 hours ago
0 NOAA 16 DEB
1 42341U 00055QH  26264.26000427  .00014829  00000-0  18187-2 0  9996
2 42341  98.7230  65.3659 0021486  50.0592 310.2503 14.83068796555046
Epoch: 2026-09-21T06:14Z
TLE epoch observation values (Epoch: 2026-09-21T06:14:24.368Z)
Latitude
Longitude
-28.37802°
Altitude
612.956 km
Speed
7.558 km/s
True Right ascension
04h 21m 27s
True Declination
0° 00' 00"
Sunlit
Object was in daylight at epoch
Visualization orbit readout
Latitude
Unknown
Longitude
Unknown
Altitude
Unknown
Speed
Unknown
Apparent Right ascension
Unknown
Apparent Declination
Unknown
Sunlit
N/A
Visualization observer readout
Local Sidereal Time
04:01:50
Azimuth
Unknown
Elevation
Unknown
Doppler factor
Unknown
Orbital elements
Apogee altitude
631.759 km
Perigee altitude
601.7 km
Semi-major axis
6,994.867 km
Eccentricity
0.00215
Inclination
98.723°
RAAN
65.3659°
Arg. of periapsis
50.0592°
True anomaly
310.06206°
Mean anomaly
310.2503°
Eccentric anomaly
310.15621°
Mean motion
3.71 °/min
Orbital period
97.04 mins
BSTAR
0.0018187
Loading maneuver chart data...
Computing Atmospheric mass density...

Documentation

Showing up to 5 results
|